Location: Recife
(8.0585°S, 34.8848°W)
Time: 10:18:33
(UTC-03:00)

Courier 1B Rocket - Pass Details

Date: 18 April 2026
Orbit: 920 x 1201 km, 28.2° (Epoch: 13 May)

Event Time Altitude Azimuth Distance (km) Brightness Sun altitude
Rises 05:28:18 0° 265° (W) 3,578 7.3 0.8°
Reaches altitude 10° 05:31:24 10° 251° (WSW) 2,662 6.7 1.5°
Maximum altitude 05:36:28 24° 199° (SSW) 1,895 6.3 2.7°
Drops below altitude 10° 05:41:48 10° 146° (SE) 2,801 7.7 4.0°
Sets 05:45:10 0° 133° (SE) 3,807 8.6 4.9°
